Hourly Weather Roundup
Issued by NWS Central Illinois

Home | Current Version | Previous Version | Text Only | Print | Product List | Glossary On
Versions: 1 2 3 4 5 6 7 8 9 10 11 12 13 14 15 16 17 18 19 20 21 22 23 24 25 26 27 28 29 30 31 32 33 34 35 36 37 38 39 40 41 42 43 44 45 46 47 48 49 50
000
NZUS43 KILX 160910
HWRILX

AREA WEATHER ROUNDUP
NATIONAL WEATHER SERVICE, LINCOLN IL
400 AM CDT TUE SEP 16 2014


CITY           SKY/WX    TMP DP  RH WIND       PRES   REMARKS
BLOOMINGTON    PTCLDY    48  46  93 N8        30.21S
CHAMPAIGN      CLOUDY    55  54  96 NW6       30.19R FOG
DECATUR        CLOUDY    55  52  89 N10       30.20R
FLORA          CLEAR     58  55  89 N9        30.18R
GALESBURG      FOG       39  39  98 CALM      30.23R VSB 1
JACKSONVILLE   CLOUDY    56  54  94 N6        30.23S
LACON          FOG       43  42  97 CALM      30.21S VSB 1/4
LAWRENCEVILLE  CLOUDY    58  56  93 N9        30.15R
LITCHFIELD     MOCLDY    54  52  94 NE7       30.21R
$$


CITY           SKY/WX    TMP DP  RH WIND       PRES   REMARKS
LINCOLN        MOCLDY    53  51  94 N5        30.20R
MACOMB         CLEAR     41  41 100 CALM      30.25S FOG
MATTOON        CLOUDY    55  52  89 N8        30.17R
MT CARMEL AP   CLOUDY    61  57  88 N10       30.15R
OLNEY-NOBLE AP CLOUDY    57  54  88 CALM      30.16S
PARIS          CLOUDY    55  54  97 N7        30.17R FOG
PEORIA         CLEAR     50  46  86 N5        30.22S
PONTIAC        CLEAR     46  46 100 NW3       30.20S FOG
RANTOUL        CLOUDY    56  52  88 N9        30.19R FOG
ROBINSON       CLOUDY    59  57  95 N6        30.16R
SPRINGFIELD    CLOUDY    55  53  93 N5        30.22R
TAYLORVILLE    CLOUDY    52  52 100 NW5       30.21R FOG
$$

...REGIONAL REPORTS...


CITY           SKY/WX    TMP DP  RH WIND       PRES   REMARKS
CHICAGO O`HARE CLEAR     47  44  90 W5        30.19R
KANKAKEE       CLEAR     49  48  95 NW3       30.19S
MOLINE         CLEAR     43  41  93 CALM      30.23S
MOUNT VERNON   CLOUDY    59  54  82 N6        30.18R
PITTSFIELD     CLOUDY    55  51  86 N5        30.23S
QUINCY         CLEAR     48  46  93 CALM      30.23S
ROCKFORD       CLEAR     43  39  86 CALM      30.23R
$$


CITY           SKY/WX    TMP DP  RH WIND       PRES   REMARKS
BURLINGTON     CLEAR     46  45  96 CALM      30.23S
CEDAR RAPIDS   CLEAR     42  42 100 NW3       30.23S
DES MOINES     CLEAR     47  44  90 NW3       30.26S
KIRKSVILLE     CLEAR     45  43  93 N7        30.25S
OTTUMWA        CLEAR     42  40  92 CALM      30.24S
ST LOUIS       MOCLDY    59  54  83 NE7       30.20S
$$


CITY           SKY/WX    TMP DP  RH WIND       PRES   REMARKS
TERRE HAUTE    CLOUDY    56  54  93 N7        30.15R
EVANSVILLE     CLOUDY    61  57  87 NW9       30.14R
INDIANAPOLIS   MOCLDY    54  51  90 N9        30.13R
LAFAYETTE      CLOUDY    53  52  96 N7        30.15S FOG
MADISON        CLEAR     39  37  92 CALM      30.21F
MILWAUKEE      CLEAR     47  43  86 NW7       30.19R
$$




USA.gov is the U.S. government's official web portal to all federal, state and local government web resources and services.